[Iaude] MPEC C05: 2024 BO4 [a=1.17,e=0.09,i=17.1,H=22.8]

mpec at marsden.cfa.harvard.edu mpec at marsden.cfa.harvard.edu
Thu Feb 1 06:49:34 EST 2024


M.P.E.C. 2024-C05                              Issued 2024 February 1, 11:47 UT

     The Minor Planet Electronic Circulars contain information on unusual
         minor planets, routine data on comets and natural satellites,
         and occasional editorial announcements.  They are published
    on behalf of Division F of the International Astronomical Union by the
          Minor Planet Center, Smithsonian Astrophysical Observatory,
                          Cambridge, MA 02138, U.S.A.
			  
             Prepared using the Tamkin Foundation Computer Network

                              MPC at CFA.HARVARD.EDU
            URL https://www.minorplanetcenter.net/    ISSN 1523-6714

                                    2024 BO4                                    


Observations:
     K24B04O*KC2024 01 30.07905 05 54 17.993+32 34 03.54         20.3 GVEC005W16
     K24B04O KC2024 01 30.08689 05 54 18.262+32 33 05.83         19.7 GVEC005W16
     K24B04O KC2024 01 30.09441 05 54 18.526+32 32 09.31         19.8 GVEC005W16
     K24B04O KC2024 01 30.10184 05 54 18.749+32 31 13.69         20.2 GVEC005W16
     K24B04O KC2024 01 30.23186 05 54 23.309+32 14 56.90         19.3 GVEC005W16
     K24B04O KC2024 01 30.25487 05 54 24.190+32 12 03.42         20.1 GVEC005W16
     K24B04O KB2024 01 30.70433 05 54 55.37 +31 16 20.1          19.4 GXEC005M45
     K24B04O KB2024 01 30.70905 05 54 55.56 +31 15 45.2                XEC005M45
     K24B04O KB2024 01 30.71377 05 54 55.74 +31 15 10.7          19.6 GXEC005M45
     K24B04O KB2024 01 30.91070805 55 05.08 +30 51 07.3          20.4 GXEC005958
     K24B04O KB2024 01 30.91598905 55 05.21 +30 50 28.1          20.2 GXEC005958
     K24B04O KB2024 01 30.92126405 55 05.44 +30 49 50.4          19.9 GXEC005958
     K24B04O HB2024 01 30.93671 05 55 05.58 +30 47 53.9                VEC005204
     K24B04O KB2024 01 30.95443 05 55 06.34 +30 45 43.6          20.1 GVEC005204
     K24B04O KB2024 01 30.98080 05 55 08.46 +30 42 50.2                qEC005Y66
     K24B04O KB2024 01 30.98154 05 55 08.47 +30 42 44.7                qEC005Y66
     K24B04O KB2024 01 30.98223 05 55 08.50 +30 42 39.8                qEC005Y66
     K24B04O KB2024 01 30.98288 05 55 08.54 +30 42 34.8          20.0 VqEC005Y66
     K24B04O KB2024 01 30.98353 05 55 08.52 +30 42 30.2                qEC005Y66
     K24B04O KC2024 01 31.81579405 56 00.64 +29 01 54.6          20.9 GVEC005L06
     K24B04O KC2024 01 31.81619705 56 00.68 +29 01 51.3          20.4 GVEC005L06
     K24B04O KC2024 02 01.09908205 56 17.76 +28 28 27.1                VEC005H21
     K24B04O KC2024 02 01.10187805 56 17.87 +28 28 07.4                VEC005H21
     K24B04O KC2024 02 01.10346205 56 17.92 +28 27 55.8                VEC005H21
     K24B04O KC2024 02 01.11733 05 56 18.384+28 26 22.99         21.1 GVEC005W16
     K24B04O KC2024 02 01.12728 05 56 18.749+28 25 12.61         20.3 GVEC005W16
     K24B04O KC2024 02 01.13694 05 56 19.142+28 24 04.21         20.4 GVEC005W16

Observer details:
204 Schiaparelli Observatory.  Observer L. Buzzi.  0.84-m f/3.5 reflector +
    CMO.
958 Observatoire de Dax.  Observer P. Dupouy.  0.50-m f/4.5 Reflector + CMO.
H21 Astronomical Research Observatory, Westfield.  Observer R. Holmes.
    Measurers T. Linder, R. Holmes, L. Horn.  0.76-m f/3.0 astrograph + CCD.
L06 Sormano 2 Observatory, Bellagio Via Lattea.  Observers E. Valli, G.
    Ventre.  Measurer P. Sicoli.  0.5-m f/6.8 reflector + CCD.
M45 Starhopper Observatory, Sfantu Gheorghe.  Observer F. Ursache.  0.41-m
    f/7.5 reflector + CMO.
W16 Pleasant Groves Observatory.  Observer M. Holbrook.  0.36-m f/2.2
    reflector + CCD.
Y66 Two-Meter Twin Telescope, TTT2, Teide.  Observer M. Serra.  Measurer M.
    Hierro.  0.80-m f/4.38 reflector + CMO.

Orbital elements:
2024 BO4                                                 Earth MOID = 0.1156 AU
Epoch 2023 Sept. 13.0 TT = JDT 2460200.5                Veres                   
M 293.90640              (2000.0)            P               Q                  
n   0.77448833     Peri.  126.71444     +0.22976242     -0.94537883             
a   1.1743371      Node   308.35128     +0.77218310     +0.32169283             
e   0.0909134      Incl.   17.14885     +0.59240400     -0.05265534             
P   1.27           H   22.83          G   0.15           U   8                  
Residuals in seconds of arc
240130 W16  0.1+  0.5-    240130 958  0.3+  1.7-    240130 Y66  0.2-  0.0
240130 W16  0.1+  0.2+    240130 958  0.6-  2.0-    240131 L06  0.3-  0.3-
240130 W16  0.2+  0.3-    240130 958  0.3-  0.9-    240131 L06  0.0   0.7-
240130 W16  0.1-  0.5-    240130 204  0.1-  0.2-    240201 H21  0.2+  0.1+
240130 W16  0.2+  0.3+    240130 204  0.1+  0.5+    240201 H21  0.2+  0.1+
240130 W16  0.3-  1.1+    240130 Y66  0.2+  0.1-    240201 H21  0.0   0.3-
240130 M45  0.1-  0.6+    240130 Y66  0.0   0.2-    240201 W16  0.1+  0.0
240130 M45  0.3-  0.1+    240130 Y66  0.1+  0.0     240201 W16  0.2-  0.0
240130 M45  0.6-  0.0     240130 Y66  0.3+  0.2-    240201 W16  0.1+  0.1+

Ephemeris:
2024 BO4                 a,e,i = 1.17, 0.09, 17                  q = 1.0676
Date    TT    R. A. (2000) Decl.     Delta      r    Elong.  Phase     V
2024 01 02    06 30 19.9 +85 47 01   0.1759  1.0752   117.2    54.4    21.2
...
2024 01 17    05 45 20.4 +61 32 17   0.1411  1.0863   133.9    40.8    20.4
...
2024 01 25    05 49 48.5 +43 40 59   0.1395  1.0939   139.3    36.0    20.2
...
2024 01 31    05 55 10.7 +30 40 34   0.1485  1.1002   138.2    36.7    20.4
2024 02 01    05 56 11.0 +28 40 26   0.1508  1.1014   137.6    37.1    20.4
2024 02 02    05 57 12.9 +26 43 57   0.1534  1.1025   137.0    37.6    20.5
...
2024 02 08    06 03 56.0 +16 28 11   0.1725  1.1095   132.2    41.2    20.9
...
2024 02 16    06 14 12.4 +06 22 59   0.2060  1.1196   125.3    46.0    21.4
...
2024 03 02    06 36 40.6 -04 41 54   0.2818  1.1400   115.2    51.9    22.3

M. P. C. Staff               (C) Copyright 2024 MPC           M.P.E.C. 2024-C05





More information about the Iaude mailing list